Flag for Australia Weather past 2 weeks in The Settlement, Christmas Island, Australia

Now
73 °F

Passing clouds.


Feels Like: 76 °F
Forecast: 73 / 78 °F
Wind: 15 mph from Southeast

Location: Christmas Island Aerodrome

Current Time: Jul 8, 2015 at 3:46:10 AM

Latest Report: Jul 8, 2015 at 3:00 AM


Visibility: N/A

Pressure: 29.92 "Hg

Humidity: 69%

Dew point: 63 °F

Location of The SettlementLocation

Historic Weather in The Settlement — Graph

°F

The Settlement temperature yesterday

Maximum temperature yesterday: 77 °F (at 4:00 PM)
Minimum temperature yesterday: 72 °F (at 7:00 AM)
Average temperature yesterday: 74 °F

Past Weeks' High & Low Weather Summary

 TemperatureHumidityPressure
High81 °F (Jun 23, 10:00 AM)100% (Jun 28, 5:00 PM)30.09 "Hg (Jun 28, 5:00 PM)
Low70 °F (Jul 3, 9:57 AM)57% (Jul 2, 9:00 PM)29.86 "Hg (Jul 6, 3:00 PM)
Average76 °F79%30.00 "Hg
* Reported Jun 23 2:00 AM — Jul 8 2:00 AM, The Settlement, Weather by CustomWeather, © 2015

Note: Actual official high and low records may vary slightly from our data, if they occured in-between our weather recording intervals... More about our weather records

Advertising

The Settlement weather history for previous 24 hours

 ConditionsComfort  
Time TempWeatherWind HumidityBarometerVisibility
2:00 AM
Wed, Jul 8
73 °FPassing clouds.13 mph69%29.95 "HgN/A
1:00 AM73 °FOvercast.14 mph74%29.95 "HgN/A
12:00 AM75 °FPassing clouds.13 mph74%29.95 "HgN/A
11:00 PM
Tue, Jul 7
75 °FPassing clouds.15 mph74%29.95 "HgN/A
10:00 PM75 °FMostly cloudy.17 mph69%29.95 "HgN/A
9:00 PM75 °FPassing clouds.15 mph74%29.95 "HgN/A
8:00 PM75 °FPassing clouds.14 mph69%29.95 "HgN/A
7:00 PM75 °FPassing clouds.15 mph65%29.92 "HgN/A
6:00 PM75 °FPassing clouds.16 mph65%29.92 "HgN/A
5:00 PM75 °FMostly cloudy.16 mph69%29.89 "HgN/A
4:00 PM77 °FMostly cloudy.16 mph69%29.89 "HgN/A
3:00 PM75 °FMild.17 mph78%29.89 "HgN/A
2:03 PM73 °FSprinkles. Cloudy.15 mph89%29.89 "HgN/A
1:00 PM72 °FSprinkles. Cloudy.10 mph94%29.92 "Hg5 mi
12:56 PM72 °FSprinkles. Cloudy.10 mph100%29.92 "Hg6 mi
12:30 PM72 °FSprinkles. Cloudy.13 mph94%29.92 "Hg4 mi
12:05 PM72 °FSprinkles. Cloudy.16 mph100%29.95 "Hg1 mi
11:00 AM72 °FSprinkles. Cloudy.13 mph94%29.95 "HgN/A
10:01 AM72 °FMild.16 mph94%29.98 "HgN/A
9:00 AM75 °FCloudy.15 mph83%29.98 "HgN/A
8:00 AM73 °FMostly cloudy.16 mph89%29.95 "HgN/A
7:00 AM72 °FMostly cloudy.15 mph100%29.92 "HgN/A
6:00 AM73 °FMostly cloudy.17 mph89%29.92 "HgN/A
5:00 AM73 °FMostly cloudy.15 mph89%29.92 "HgN/A
4:00 AM73 °FSprinkles. Mostly cloudy.17 mph89%29.92 "HgN/A
3:00 AM73 °FOvercast.16 mph89%29.89 "HgN/A
Weather by CustomWeather, © 2015

See weather overviewHow to use our weather pages